Regional Weather Roundup
Issued by NWS

Home | Current Version | Previous Version | Text Only | Print | Product List | Glossary On
Versions: 1 2 3 4 5 6 7 8 9 10 11 12 13 14 15 16 17 18 19 20 21 22 23 24 25 26 27 28 29 30 31 32 33 34 35 36 37 38 39 40 41 42 43 44 45 46 47 48 49 50
000
ASUS43 KOAX 250310
RWRNE

WEATHER ROUNDUP FOR NEBRASKA
NATIONAL WEATHER SERVICE OMAHA NE
1000 PM CDT FRI OCT 24 2014

NOTES: SATELLITE DATA IS BEING USED TO AUGMENT CLOUD COVER ABOVE
       12000 FEET.
       "FAIR" INDICATES FEW OR NO CLOUDS BELOW 12,000 FEET WITH NO
       SIGNIFICANT WEATHER AND/OR OBSTRUCTIONS TO VISIBILITY.

  * THESE STATIONS DO NOT REPORT WEATHER SUCH AS RAIN...SNOW OR FOG.

NEZ001>004-019>022-054>056-250400-
NEBRASKA PANHANDLE

CITY           SKY/WX    TMP DP  RH WIND       PRES   REMARKS
SCOTTSBLUFF    CLEAR     55  32  41 SW5       30.09R
ALLIANCE       CLEAR     45  35  68 N5        30.08R
CHADRON        CLEAR     46  36  68 CALM      30.08R
KIMBALL        CLEAR     49  29  46 SW3       30.15R
SIDNEY         CLEAR     48  35  60 SW10      30.13R
$$

NEZ057>060-069>072-079>082-250400-
SOUTHWEST NEBRASKA

CITY           SKY/WX    TMP DP  RH WIND       PRES   REMARKS
NORTH PLATTE   CLEAR     51  41  68 SW6       30.05R
IMPERIAL       CLEAR     59  35  40 SW5       30.07R
LEXINGTON      CLEAR     53  41  63 CALM      30.04R
MCCOOK         CLEAR     58  36  43 SW10      30.04R
OGALLALA       CLEAR     48  37  63 CALM      30.06R
$$

NEZ005>010-023>029-035>040-094-250400-
NORTH CENTRAL NEBRASKA

CITY           SKY/WX    TMP DP  RH WIND       PRES   REMARKS
VALENTINE      CLEAR     51  35  54 CALM      30.04R
AINSWORTH      CLEAR     52  37  56 E3        30.04R
BROKEN BOW     CLEAR     48  40  73 N5        30.04R
O`NEILL        CLEAR     58  39  49 CALM      30.03S
ORD            CLEAR     46  40  79 CALM      30.02R
THEDFORD       CLEAR     52  36  53 CALM      30.05R
$$

NEZ041-046>049-061>064-073>077-083>087-250400-
SOUTH CENTRAL NEBRASKA

CITY           SKY/WX    TMP DP  RH WIND       PRES   REMARKS
GRAND ISLAND   CLEAR     54  46  74 CALM      30.02R
AURORA         CLEAR     52  46  82 CALM      30.01S
HASTINGS       CLEAR     57  46  66 CALM      30.02R
HEBRON         CLEAR     56  49  79 CALM      30.00S
HOLDREGE       CLEAR     58  39  49 CALM      30.02S
KEARNEY *      CLEAR     55  45  67 CALM      30.03R
YORK           CLEAR     54  48  82 MISG      30.01S
$$

NEZ011>018-030>034-042>045-250400-
NORTHEAST NEBRASKA

CITY           SKY/WX    TMP DP  RH WIND       PRES   REMARKS
NORFOLK        CLEAR     50  45  83 W3        30.01R
ALBION         CLEAR     50  42  74 NW3       30.03R
BLAIR          CLEAR     62  51  68 NW3       29.99R
COLUMBUS *     CLEAR     52  45  76 NW3       30.02R
FREMONT        CLEAR     58  51  76 W3        30.00R
TEKAMAH        CLEAR     54  48  80 CALM      29.99R
WAYNE          CLEAR     50  46  84 SW5       30.01R
$$

NEZ050>053-065>068-078-088>093-250400-
SOUTHEAST NEBRASKA

CITY           SKY/WX    TMP DP  RH WIND       PRES   REMARKS
LINCOLN        CLEAR     57  51  80 NW3       30.01R
OMAHA EPPLEY   CLEAR     57  55  93 CALM      29.99R
BEATRICE       CLEAR     55  53  91 CALM      29.99R
FALLS CITY     CLEAR     65  60  84 CALM      29.97R
NEBRASKA CITY  CLEAR     64  55  72 N3        29.99R
PLATTSMOUTH    CLEAR     58  54  86 CALM      29.99R
$$

NEZ044-045-051>053-067-250400-
OMAHA AREA

CITY           SKY/WX    TMP DP  RH WIND       PRES   REMARKS
OMAHA EPPLEY   CLEAR     57  55  93 CALM      29.99R
BLAIR          CLEAR     62  51  68 NW3       29.99R
FREMONT        CLEAR     58  51  76 W3        30.00R
MILLARD          N/A     56  55  95 CALM      29.99R FOG
OFFUTT AFB     CLEAR     55  55 100 CALM      29.98R
PLATTSMOUTH    CLEAR     58  54  86 CALM      29.99R
WAHOO          FAIR      52  47  81 CALM      29.99S
$$



USA.gov is the U.S. government's official web portal to all federal, state and local government web resources and services.